Location: Il Ritiro
(43.4167°N, 13.1333°E)
Time: 16:26:01
(UTC+00:00)

Nadezhda 3 Rocket - Pass Details

Date: 05 July 2020
Orbit: 957 x 1000 km, 82.9° (Epoch: 11 August)

Event Time Altitude Azimuth Distance (km) Brightness Sun altitude
Rises 21:17:36 0° 355° (N) 3,732 8.3 -18.9°
Reaches altitude 10° 21:20:13 10° 0° (N) 2,777 7.3 -19.1°
Maximum altitude 21:26:28 55° 78° (ENE) 1,186 4.3 -19.6°
Enters shadow 21:29:10 33° 139° (SE) 1,605 4.6 -19.8°
